Time,TemperatureF,DewpointF,PressureIn,WindDirection,WindDirectionDegrees,WindSpeedMPH,WindSpeedGustMPH,Humidity,HourlyPrecipIn,Conditions,Clouds,dailyrainin,SoftwareType,DateUTC
2013-01-30 00:03:00,55.8,38.9,29.59,WSW,248,4.9,11.4,53,0.00,,,0.00,WUHU216HW,2013-01-30 06:03:00,
2013-01-30 00:08:00,55.8,39.8,29.60,SSW,203,4.0,11.4,55,0.00,,,0.00,WUHU216HW,2013-01-30 06:08:00,
2013-01-30 00:13:00,55.6,39.2,29.60,SSE,158,4.5,7.6,54,0.00,,,0.00,WUHU216HW,2013-01-30 06:13:00,
2013-01-30 00:18:00,55.6,38.7,29.60,WSW,248,2.5,7.6,53,0.00,,,0.00,WUHU216HW,2013-01-30 06:18:00,
2013-01-30 00:23:00,55.4,38.0,29.60,SW,225,2.2,7.2,52,0.00,,,0.00,WUHU216HW,2013-01-30 06:23:00,
2013-01-30 00:28:00,55.4,39.0,29.60,West,270,1.8,4.9,54,0.00,,,0.00,WUHU216HW,2013-01-30 06:28:00,
2013-01-30 00:33:00,55.4,39.0,29.59,SW,225,4.7,5.4,54,0.00,,,0.00,WUHU216HW,2013-01-30 06:33:00,
2013-01-30 00:38:00,55.3,38.8,29.59,SW,225,3.4,5.4,54,0.00,,,0.00,WUHU216HW,2013-01-30 06:38:00,
2013-01-30 00:43:00,55.3,38.8,29.59,WSW,248,5.6,5.6,54,0.00,,,0.00,WUHU216HW,2013-01-30 06:43:00,
2013-01-30 00:48:00,55.1,38.6,29.59,WSW,248,1.6,5.6,54,0.00,,,0.00,WUHU216HW,2013-01-30 06:48:00,
2013-01-30 00:53:00,55.1,38.6,29.60,SSW,203,1.6,6.3,54,0.00,,,0.00,WUHU216HW,2013-01-30 06:53:00,
2013-01-30 00:58:00,55.1,38.2,29.59,SW,225,2.5,6.3,53,0.00,,,0.00,WUHU216HW,2013-01-30 06:58:00,
2013-01-30 01:03:00,54.9,37.5,29.59,SSW,203,1.6,5.6,52,0.00,,,0.00,WUHU216HW,2013-01-30 07:03:00,
2013-01-30 01:08:00,54.7,37.4,29.60,SE,135,3.4,5.6,52,0.00,,,0.00,WUHU216HW,2013-01-30 07:08:00,
2013-01-30 01:13:00,54.7,37.4,29.59,SE,135,0.7,5.4,52,0.00,,,0.00,WUHU216HW,2013-01-30 07:13:00,
2013-01-30 01:18:00,54.5,37.2,29.59,SW,225,4.0,6.7,52,0.00,,,0.00,WUHU216HW,2013-01-30 07:18:00,
2013-01-30 01:23:00,54.4,36.5,29.59,SSW,203,1.1,6.7,51,0.00,,,0.00,WUHU216HW,2013-01-30 07:23:00,
2013-01-30 01:28:00,54.4,37.1,29.59,SSW,203,3.4,5.8,52,0.00,,,0.00,WUHU216HW,2013-01-30 07:28:00,
2013-01-30 01:33:00,54.2,36.9,29.59,SSW,203,1.8,6.9,52,0.00,,,0.00,WUHU216HW,2013-01-30 07:33:00,
2013-01-30 01:38:00,54.2,36.9,29.57,ENE,68,0.7,6.9,52,0.00,,,0.00,WUHU216HW,2013-01-30 07:38:00,
2013-01-30 01:43:00,54.0,36.7,29.56,South,180,1.8,2.9,52,0.00,,,0.00,WUHU216HW,2013-01-30 07:43:00,
2013-01-30 01:48:00,53.8,37.0,29.57,SE,135,0.7,2.5,53,0.00,,,0.00,WUHU216HW,2013-01-30 07:48:00,
2013-01-30 01:53:00,53.8,37.0,29.59,WSW,248,1.8,3.4,53,0.00,,,0.00,WUHU216HW,2013-01-30 07:53:00,
2013-01-30 01:58:00,53.6,36.9,29.59,SW,225,0.9,6.7,53,0.00,,,0.00,WUHU216HW,2013-01-30 07:58:00,
2013-01-30 02:03:00,53.6,36.9,29.59,SW,225,1.3,6.7,53,0.00,,,0.00,WUHU216HW,2013-01-30 08:03:00,
2013-01-30 02:08:00,53.5,36.7,29.59,SSW,203,3.1,4.7,53,0.00,,,0.00,WUHU216HW,2013-01-30 08:08:00,
2013-01-30 02:13:00,53.3,36.6,29.59,WSW,248,2.0,4.7,53,0.00,,,0.00,WUHU216HW,2013-01-30 08:13:00,
2013-01-30 02:18:00,53.3,36.6,29.60,ENE,68,0.9,5.1,53,0.00,,,0.00,WUHU216HW,2013-01-30 08:18:00,
2013-01-30 02:23:00,53.1,35.9,29.60,SW,225,2.5,6.7,52,0.00,,,0.00,WUHU216HW,2013-01-30 08:23:00,
2013-01-30 02:28:00,53.1,35.5,29.60,SSE,158,0.4,6.7,51,0.00,,,0.00,WUHU216HW,2013-01-30 08:28:00,
2013-01-30 02:33:00,52.9,35.7,29.58,SSW,203,0.4,3.1,52,0.00,,,0.00,WUHU216HW,2013-01-30 08:33:00,
2013-01-30 02:38:00,52.9,35.3,29.58,North,0,1.8,3.4,51,0.00,,,0.00,WUHU216HW,2013-01-30 08:38:00,
2013-01-30 02:43:00,52.6,34.9,29.58,ESE,113,0.4,3.4,51,0.00,,,0.00,WUHU216HW,2013-01-30 08:43:00,
2013-01-30 02:48:00,52.4,34.7,29.59,ESE,113,0.4,2.2,51,0.00,,,0.00,WUHU216HW,2013-01-30 08:48:00,
2013-01-30 02:53:00,52.4,34.7,29.60,SSW,203,2.5,3.4,51,0.00,,,0.00,WUHU216HW,2013-01-30 08:53:00,
2013-01-30 02:58:00,52.2,34.7,29.61,SSE,158,0.9,4.9,51,0.00,,,0.00,WUHU216HW,2013-01-30 08:58:00,
2013-01-30 03:03:00,52.0,34.9,29.61,SSE,158,0.7,4.9,52,0.00,,,0.00,WUHU216HW,2013-01-30 09:03:00,
2013-01-30 03:08:00,51.8,34.7,29.62,ESE,113,1.8,2.5,52,0.00,,,0.00,WUHU216HW,2013-01-30 09:08:00,
2013-01-30 03:13:00,51.7,35.0,29.62,SSE,158,0.4,2.5,53,0.00,,,0.00,WUHU216HW,2013-01-30 09:13:00,
2013-01-30 03:18:00,51.5,35.3,29.62,ENE,68,2.0,4.3,54,0.00,,,0.00,WUHU216HW,2013-01-30 09:18:00,
2013-01-30 03:23:00,51.3,35.7,29.62,NNW,338,2.0,4.7,55,0.00,,,0.00,WUHU216HW,2013-01-30 09:23:00,
2013-01-30 03:28:00,51.1,36.4,29.62,ESE,113,1.6,4.7,57,0.00,,,0.00,WUHU216HW,2013-01-30 09:28:00,
2013-01-30 03:33:00,50.8,36.9,29.63,South,180,1.8,3.6,59,0.00,,,0.00,WUHU216HW,2013-01-30 09:33:00,
2013-01-30 03:38:00,50.4,37.1,29.63,ENE,68,2.5,3.6,60,0.00,,,0.00,WUHU216HW,2013-01-30 09:38:00,
2013-01-30 03:43:00,50.2,37.3,29.64,ENE,68,4.0,4.0,61,0.00,,,0.00,WUHU216HW,2013-01-30 09:43:00,
2013-01-30 03:48:00,50.0,37.5,29.63,NE,45,1.3,4.0,62,0.00,,,0.00,WUHU216HW,2013-01-30 09:48:00,
2013-01-30 03:53:00,49.7,37.5,29.65,ESE,113,1.1,4.0,63,0.00,,,0.00,WUHU216HW,2013-01-30 09:53:00,
2013-01-30 03:58:00,49.5,37.8,29.65,North,0,2.5,3.8,64,0.00,,,0.00,WUHU216HW,2013-01-30 09:58:00,
2013-01-30 04:03:00,49.3,37.6,29.65,SSE,158,2.0,3.8,64,0.00,,,0.00,WUHU216HW,2013-01-30 10:03:00,
2013-01-30 04:08:00,49.1,37.4,29.65,SSW,203,2.5,5.4,64,0.00,,,0.00,WUHU216HW,2013-01-30 10:08:00,
2013-01-30 04:13:00,49.1,37.4,29.65,NE,45,1.8,5.4,64,0.00,,,0.00,WUHU216HW,2013-01-30 10:13:00,
2013-01-30 04:18:00,49.0,37.3,29.66,NNW,338,4.5,4.5,64,0.00,,,0.00,WUHU216HW,2013-01-30 10:18:00,
2013-01-30 04:23:00,48.8,37.1,29.66,NNE,23,2.5,6.7,64,0.00,,,0.00,WUHU216HW,2013-01-30 10:23:00,
2013-01-30 04:28:00,48.6,37.0,29.66,NNW,338,2.2,6.7,64,0.00,,,0.00,WUHU216HW,2013-01-30 10:28:00,
2013-01-30 04:33:00,48.4,36.8,29.65,NW,315,4.0,5.8,64,0.00,,,0.00,WUHU216HW,2013-01-30 10:33:00,
2013-01-30 04:38:00,48.2,36.6,29.65,NNE,23,4.7,7.6,64,0.00,,,0.00,WUHU216HW,2013-01-30 10:38:00,
2013-01-30 04:43:00,48.2,36.6,29.67,NNE,23,1.8,7.6,64,0.00,,,0.00,WUHU216HW,2013-01-30 10:43:00,
2013-01-30 04:48:00,48.1,36.5,29.68,WSW,248,2.5,4.7,64,0.00,,,0.00,WUHU216HW,2013-01-30 10:48:00,
2013-01-30 04:53:00,48.1,36.5,29.69,North,0,1.3,4.7,64,0.00,,,0.00,WUHU216HW,2013-01-30 10:53:00,
2013-01-30 04:58:00,48.1,36.8,29.68,NW,315,2.9,4.7,65,0.00,,,0.00,WUHU216HW,2013-01-30 10:58:00,
2013-01-30 05:03:00,47.9,36.3,29.66,NNE,23,1.8,4.0,64,0.00,,,0.00,WUHU216HW,2013-01-30 11:03:00,
2013-01-30 05:08:00,47.9,36.3,29.67,North,0,4.7,5.4,64,0.00,,,0.00,WUHU216HW,2013-01-30 11:08:00,
2013-01-30 05:13:00,47.7,36.1,29.67,North,0,2.5,5.4,64,0.00,,,0.00,WUHU216HW,2013-01-30 11:13:00,
2013-01-30 05:18:00,47.5,36.3,29.68,ENE,68,3.4,4.7,65,0.00,,,0.00,WUHU216HW,2013-01-30 11:18:00,
2013-01-30 05:23:00,47.5,35.9,29.68,NW,315,5.4,7.6,64,0.00,,,0.00,WUHU216HW,2013-01-30 11:23:00,
2013-01-30 05:28:00,47.2,35.6,29.68,NW,315,5.4,7.6,64,0.00,,,0.00,WUHU216HW,2013-01-30 11:28:00,
2013-01-30 05:33:00,47.0,35.4,29.68,North,0,1.8,7.2,64,0.00,,,0.00,WUHU216HW,2013-01-30 11:33:00,
2013-01-30 05:38:00,46.8,35.2,29.68,WNW,293,3.8,7.2,64,0.00,,,0.00,WUHU216HW,2013-01-30 11:38:00,
2013-01-30 05:43:00,46.8,34.8,29.71,ENE,68,1.6,7.2,63,0.00,,,0.00,WUHU216HW,2013-01-30 11:43:00,
2013-01-30 05:48:00,46.8,35.2,29.70,NE,45,2.5,7.2,64,0.00,,,0.00,WUHU216HW,2013-01-30 11:48:00,
2013-01-30 05:53:00,46.8,34.8,29.70,NW,315,0.4,4.7,63,0.00,,,0.00,WUHU216HW,2013-01-30 11:53:00,
2013-01-30 05:58:00,46.8,35.2,29.73,SW,225,3.1,4.3,64,0.00,,,0.00,WUHU216HW,2013-01-30 11:58:00,
2013-01-30 06:03:00,46.8,35.2,29.74,ESE,113,0.9,4.3,64,0.00,,,0.00,WUHU216HW,2013-01-30 12:03:00,
2013-01-30 06:08:00,47.0,35.0,29.72,SW,225,2.5,3.6,63,0.00,,,0.00,WUHU216HW,2013-01-30 12:08:00,
2013-01-30 06:13:00,46.8,34.8,29.71,ESE,113,1.8,4.5,63,0.00,,,0.00,WUHU216HW,2013-01-30 12:13:00,
2013-01-30 06:18:00,46.6,34.7,29.71,South,180,3.1,4.9,63,0.00,,,0.00,WUHU216HW,2013-01-30 12:18:00,
2013-01-30 06:23:00,46.4,34.5,29.73,NW,315,2.9,4.9,63,0.00,,,0.00,WUHU216HW,2013-01-30 12:23:00,
2013-01-30 06:28:00,46.4,34.5,29.74,North,0,1.3,3.1,63,0.00,,,0.00,WUHU216HW,2013-01-30 12:28:00,
2013-01-30 06:33:00,46.4,34.5,29.74,NW,315,4.7,4.7,63,0.00,,,0.00,WUHU216HW,2013-01-30 12:33:00,
2013-01-30 06:38:00,46.3,34.3,29.74,NNW,338,0.7,4.7,63,0.00,,,0.00,WUHU216HW,2013-01-30 12:38:00,
2013-01-30 06:43:00,46.1,34.1,29.74,NW,315,1.8,6.3,63,0.00,,,0.00,WUHU216HW,2013-01-30 12:43:00,
2013-01-30 06:48:00,46.1,34.1,29.75,NNW,338,3.1,6.9,63,0.00,,,0.00,WUHU216HW,2013-01-30 12:48:00,
2013-01-30 06:53:00,45.9,34.0,29.76,ESE,113,1.8,9.8,63,0.00,,,0.00,WUHU216HW,2013-01-30 12:53:00,
2013-01-30 06:58:00,45.7,33.4,29.76,SSE,158,2.2,9.8,62,0.00,,,0.00,WUHU216HW,2013-01-30 12:58:00,
2013-01-30 07:03:00,45.7,33.4,29.76,NE,45,2.5,6.5,62,0.00,,,0.00,WUHU216HW,2013-01-30 13:03:00,
2013-01-30 07:08:00,45.5,32.9,29.77,West,270,2.5,6.5,61,0.00,,,0.00,WUHU216HW,2013-01-30 13:08:00,
2013-01-30 07:13:00,45.5,32.9,29.77,NNW,338,2.9,6.3,61,0.00,,,0.00,WUHU216HW,2013-01-30 13:13:00,
2013-01-30 07:18:00,45.4,33.1,29.78,West,270,2.7,6.3,62,0.00,,,0.00,WUHU216HW,2013-01-30 13:18:00,
2013-01-30 07:23:00,45.4,32.7,29.78,NE,45,2.9,4.3,61,0.00,,,0.00,WUHU216HW,2013-01-30 13:23:00,
2013-01-30 07:28:00,45.2,32.1,29.78,NW,315,4.0,6.3,60,0.00,,,0.00,WUHU216HW,2013-01-30 13:28:00,
2013-01-30 07:33:00,45.0,32.1,29.78,NNW,338,3.4,6.5,60,0.00,,,0.00,WUHU216HW,2013-01-30 13:33:00,
2013-01-30 07:38:00,45.0,32.4,29.79,NNW,338,1.8,6.5,61,0.00,,,0.00,WUHU216HW,2013-01-30 13:38:00,
2013-01-30 07:43:00,45.0,32.4,29.79,NW,315,2.9,5.6,61,0.00,,,0.00,WUHU216HW,2013-01-30 13:43:00,
2013-01-30 07:48:00,45.0,32.4,29.80,NE,45,2.5,5.6,61,0.00,,,0.00,WUHU216HW,2013-01-30 13:48:00,
2013-01-30 07:53:00,45.2,33.0,29.81,NE,45,3.6,5.6,62,0.00,,,0.00,WUHU216HW,2013-01-30 13:53:00,
2013-01-30 07:58:00,45.2,32.6,29.81,ESE,113,2.0,4.3,61,0.00,,,0.00,WUHU216HW,2013-01-30 13:58:00,
2013-01-30 08:03:00,45.0,32.8,29.82,ENE,68,1.3,4.7,62,0.00,,,0.00,WUHU216HW,2013-01-30 14:03:00,
2013-01-30 08:08:00,45.2,33.0,29.83,ENE,68,0.7,4.7,62,0.00,,,0.00,WUHU216HW,2013-01-30 14:08:00,
2013-01-30 08:13:00,45.2,33.0,29.83,ENE,68,1.3,3.6,62,0.00,,,0.00,WUHU216HW,2013-01-30 14:13:00,
2013-01-30 08:18:00,45.4,33.5,29.84,NNE,23,2.7,6.0,63,0.00,,,0.00,WUHU216HW,2013-01-30 14:18:00,
2013-01-30 08:23:00,45.4,33.5,29.84,NNW,338,1.1,6.0,63,0.00,,,0.00,WUHU216HW,2013-01-30 14:23:00,
2013-01-30 08:28:00,45.4,33.5,29.85,NNE,23,3.4,3.4,63,0.00,,,0.00,WUHU216HW,2013-01-30 14:28:00,
2013-01-30 08:33:00,45.5,33.3,29.85,WNW,293,2.9,7.6,62,0.00,,,0.00,WUHU216HW,2013-01-30 14:33:00,
2013-01-30 08:38:00,45.4,33.1,29.85,ENE,68,4.5,7.6,62,0.00,,,0.00,WUHU216HW,2013-01-30 14:38:00,
2013-01-30 08:43:00,45.4,32.3,29.86,NNE,23,6.0,9.6,60,0.00,,,0.00,WUHU216HW,2013-01-30 14:43:00,
2013-01-30 08:48:00,45.2,31.7,29.86,WSW,248,4.9,9.6,59,0.00,,,0.00,WUHU216HW,2013-01-30 14:48:00,
2013-01-30 08:53:00,45.2,31.7,29.86,NW,315,3.8,8.5,59,0.00,,,0.00,WUHU216HW,2013-01-30 14:53:00,
2013-01-30 08:58:00,45.0,31.2,29.87,SSE,158,6.3,8.3,58,0.00,,,0.00,WUHU216HW,2013-01-30 14:58:00,
2013-01-30 09:03:00,45.2,31.7,29.87,NE,45,4.0,8.3,59,0.00,,,0.00,WUHU216HW,2013-01-30 15:03:00,
2013-01-30 09:08:00,45.4,31.4,29.88,North,0,8.3,8.3,58,0.00,,,0.00,WUHU216HW,2013-01-30 15:08:00,
2013-01-30 09:13:00,45.5,31.1,29.88,NW,315,2.2,9.8,57,0.00,,,0.00,WUHU216HW,2013-01-30 15:13:00,
2013-01-30 09:18:00,45.7,31.8,29.89,NNW,338,1.8,9.8,58,0.00,,,0.00,WUHU216HW,2013-01-30 15:18:00,
2013-01-30 09:23:00,45.7,31.3,29.89,NNW,338,3.8,8.3,57,0.00,,,0.00,WUHU216HW,2013-01-30 15:23:00,
2013-01-30 09:28:00,45.7,31.8,29.89,NNW,338,4.7,8.3,58,0.00,,,0.00,WUHU216HW,2013-01-30 15:28:00,
2013-01-30 09:33:00,45.9,32.0,29.89,WNW,293,1.3,6.3,58,0.00,,,0.00,WUHU216HW,2013-01-30 15:33:00,
2013-01-30 09:38:00,46.1,32.0,29.90,NNW,338,3.8,6.3,58,0.00,,,0.00,WUHU216HW,2013-01-30 15:38:00,
2013-01-30 09:43:00,46.3,32.2,29.91,North,0,0.9,5.4,58,0.00,,,0.00,WUHU216HW,2013-01-30 15:43:00,
2013-01-30 09:48:00,46.1,31.6,29.91,North,0,5.4,8.9,57,0.00,,,0.00,WUHU216HW,2013-01-30 15:48:00,
2013-01-30 09:53:00,45.9,31.5,29.91,NW,315,3.4,8.9,57,0.00,,,0.00,WUHU216HW,2013-01-30 15:53:00,
2013-01-30 09:58:00,46.1,32.0,29.91,NNW,338,3.4,7.2,58,0.00,,,0.00,WUHU216HW,2013-01-30 15:58:00,
2013-01-30 10:03:00,46.4,32.0,29.91,NNE,23,6.0,6.0,57,0.00,,,0.00,WUHU216HW,2013-01-30 16:03:00,
2013-01-30 10:08:00,46.4,32.0,29.91,NW,315,3.4,6.7,57,0.00,,,0.00,WUHU216HW,2013-01-30 16:08:00,
2013-01-30 10:13:00,46.4,32.0,29.91,NW,315,3.1,6.7,57,0.00,,,0.00,WUHU216HW,2013-01-30 16:13:00,
2013-01-30 10:18:00,46.4,32.0,29.92,NNE,23,4.5,7.4,57,0.00,,,0.00,WUHU216HW,2013-01-30 16:18:00,
2013-01-30 10:23:00,46.6,32.1,29.92,NNW,338,3.1,7.4,57,0.00,,,0.00,WUHU216HW,2013-01-30 16:23:00,
2013-01-30 10:28:00,46.8,32.3,29.92,West,270,4.9,8.7,57,0.00,,,0.00,WUHU216HW,2013-01-30 16:28:00,
2013-01-30 10:33:00,47.0,32.1,29.93,ENE,68,3.4,8.7,56,0.00,,,0.00,WUHU216HW,2013-01-30 16:33:00,
2013-01-30 10:38:00,47.0,32.1,29.93,NNE,23,2.5,6.9,56,0.00,,,0.00,WUHU216HW,2013-01-30 16:38:00,
2013-01-30 10:43:00,46.8,31.9,29.93,SE,135,2.5,7.4,56,0.00,,,0.00,WUHU216HW,2013-01-30 16:43:00,
2013-01-30 10:48:00,47.2,32.2,29.94,SSE,158,5.4,7.4,56,0.00,,,0.00,WUHU216HW,2013-01-30 16:48:00,
2013-01-30 10:53:00,47.3,31.9,29.93,NE,45,2.5,6.9,55,0.00,,,0.00,WUHU216HW,2013-01-30 16:53:00,
2013-01-30 10:58:00,47.3,31.9,29.94,NW,315,2.5,6.9,55,0.00,,,0.00,WUHU216HW,2013-01-30 16:58:00,
2013-01-30 11:03:00,47.5,31.6,29.94,North,0,7.6,7.6,54,0.00,,,0.00,WUHU216HW,2013-01-30 17:03:00,
2013-01-30 11:08:00,47.9,31.5,29.94,NNW,338,8.9,8.9,53,0.00,,,0.00,WUHU216HW,2013-01-30 17:08:00,
2013-01-30 11:13:00,47.9,31.5,29.94,WNW,293,3.4,9.4,53,0.00,,,0.00,WUHU216HW,2013-01-30 17:13:00,
2013-01-30 11:18:00,48.4,32.5,29.94,WNW,293,5.4,9.4,54,0.00,,,0.00,WUHU216HW,2013-01-30 17:18:00,
2013-01-30 11:23:00,48.8,32.3,29.94,NNW,338,6.3,9.2,53,0.00,,,0.00,WUHU216HW,2013-01-30 17:23:00,
2013-01-30 11:28:00,49.0,32.5,29.94,ESE,113,4.5,9.2,53,0.00,,,0.00,WUHU216HW,2013-01-30 17:28:00,
2013-01-30 11:33:00,49.1,32.7,29.94,North,0,4.7,7.8,53,0.00,,,0.00,WUHU216HW,2013-01-30 17:33:00,
2013-01-30 11:38:00,49.3,32.9,29.95,ENE,68,4.7,8.5,53,0.00,,,0.00,WUHU216HW,2013-01-30 17:38:00,
2013-01-30 11:43:00,49.9,32.9,29.95,North,0,5.4,8.5,52,0.00,,,0.00,WUHU216HW,2013-01-30 17:43:00,
2013-01-30 11:48:00,50.2,32.9,29.94,ENE,68,3.8,7.4,51,0.00,,,0.00,WUHU216HW,2013-01-30 17:48:00,
2013-01-30 11:53:00,50.2,33.3,29.94,NW,315,1.8,6.3,52,0.00,,,0.00,WUHU216HW,2013-01-30 17:53:00,
2013-01-30 11:58:00,50.2,32.9,29.94,East,90,4.7,6.5,51,0.00,,,0.00,WUHU216HW,2013-01-30 17:58:00,
2013-01-30 12:03:00,50.2,32.9,29.94,NNE,23,3.4,6.5,51,0.00,,,0.00,WUHU216HW,2013-01-30 18:03:00,
2013-01-30 12:08:00,50.8,32.9,29.94,SSW,203,4.5,5.6,50,0.00,,,0.00,WUHU216HW,2013-01-30 18:08:00,
2013-01-30 12:13:00,51.3,32.8,29.94,WSW,248,4.0,7.6,49,0.00,,,0.00,WUHU216HW,2013-01-30 18:13:00,
2013-01-30 12:18:00,51.5,32.9,29.94,ENE,68,3.4,7.6,49,0.00,,,0.00,WUHU216HW,2013-01-30 18:18:00,
2013-01-30 12:23:00,51.7,33.1,29.94,SE,135,1.1,6.3,49,0.00,,,0.00,WUHU216HW,2013-01-30 18:23:00,
2013-01-30 12:28:00,52.0,32.9,29.94,NNE,23,3.4,5.1,48,0.00,,,0.00,WUHU216HW,2013-01-30 18:28:00,
2013-01-30 12:33:00,52.0,32.9,29.94,NE,45,4.0,6.9,48,0.00,,,0.00,WUHU216HW,2013-01-30 18:33:00,
2013-01-30 12:38:00,52.2,32.0,29.94,East,90,2.0,6.9,46,0.00,,,0.00,WUHU216HW,2013-01-30 18:38:00,
2013-01-30 12:43:00,52.4,32.7,29.94,SE,135,1.1,5.6,47,0.00,,,0.00,WUHU216HW,2013-01-30 18:43:00,
2013-01-30 12:48:00,52.9,32.6,29.94,NNW,338,2.2,5.6,46,0.00,,,0.00,WUHU216HW,2013-01-30 18:48:00,
2013-01-30 12:53:00,53.1,32.8,29.93,NNW,338,5.1,5.6,46,0.00,,,0.00,WUHU216HW,2013-01-30 18:53:00,
2013-01-30 12:58:00,53.1,32.2,29.93,ESE,113,3.6,6.9,45,0.00,,,0.00,WUHU216HW,2013-01-30 18:58:00,
2013-01-30 13:03:00,53.1,32.8,29.93,NW,315,2.0,6.9,46,0.00,,,0.00,WUHU216HW,2013-01-30 19:03:00,
2013-01-30 13:08:00,53.3,33.0,29.92,SSE,158,1.3,6.3,46,0.00,,,0.00,WUHU216HW,2013-01-30 19:08:00,
2013-01-30 13:13:00,53.8,33.4,29.92,NE,45,4.7,6.9,46,0.00,,,0.00,WUHU216HW,2013-01-30 19:13:00,
2013-01-30 13:18:00,53.8,31.7,29.93,NW,315,4.7,6.9,43,0.00,,,0.00,WUHU216HW,2013-01-30 19:18:00,
2013-01-30 13:23:00,53.6,31.6,29.93,NNE,23,2.2,5.8,43,0.00,,,0.00,WUHU216HW,2013-01-30 19:23:00,
2013-01-30 13:28:00,53.8,31.7,29.92,East,90,3.1,5.8,43,0.00,,,0.00,WUHU216HW,2013-01-30 19:28:00,
2013-01-30 13:33:00,54.0,30.8,29.92,NW,315,4.0,5.8,41,0.00,,,0.00,WUHU216HW,2013-01-30 19:33:00,
2013-01-30 13:38:00,54.0,31.3,29.93,NNE,23,3.4,4.7,42,0.00,,,0.00,WUHU216HW,2013-01-30 19:38:00,
2013-01-30 13:43:00,54.0,30.8,29.93,ENE,68,2.5,5.4,41,0.00,,,0.00,WUHU216HW,2013-01-30 19:43:00,
2013-01-30 13:48:00,54.0,30.8,29.92,North,0,2.5,6.0,41,0.00,,,0.00,WUHU216HW,2013-01-30 19:48:00,
2013-01-30 13:53:00,54.0,30.3,29.93,SE,135,3.8,6.3,40,0.00,,,0.00,WUHU216HW,2013-01-30 19:53:00,
2013-01-30 13:58:00,54.2,31.0,29.92,East,90,2.5,6.3,41,0.00,,,0.00,WUHU216HW,2013-01-30 19:58:00,
2013-01-30 14:03:00,54.4,30.5,29.92,East,90,2.9,5.6,40,0.00,,,0.00,WUHU216HW,2013-01-30 20:03:00,
2013-01-30 14:08:00,54.4,31.1,29.92,NNW,338,5.4,7.6,41,0.00,,,0.00,WUHU216HW,2013-01-30 20:08:00,
2013-01-30 14:13:00,54.5,30.7,29.93,East,90,2.5,7.6,40,0.00,,,0.00,WUHU216HW,2013-01-30 20:13:00,
2013-01-30 14:18:00,54.4,29.9,29.93,NNE,23,4.0,8.5,39,0.00,,,0.00,WUHU216HW,2013-01-30 20:18:00,
2013-01-30 14:23:00,54.4,30.5,29.93,East,90,3.4,8.5,40,0.00,,,0.00,WUHU216HW,2013-01-30 20:23:00,
2013-01-30 14:28:00,54.4,29.9,29.92,East,90,2.7,6.7,39,0.00,,,0.00,WUHU216HW,2013-01-30 20:28:00,
2013-01-30 14:33:00,54.4,29.2,29.93,SE,135,1.8,5.1,38,0.00,,,0.00,WUHU216HW,2013-01-30 20:33:00,
2013-01-30 14:38:00,54.4,29.9,29.93,ESE,113,1.1,5.4,39,0.00,,,0.00,WUHU216HW,2013-01-30 20:38:00,
2013-01-30 14:43:00,54.4,30.5,29.93,ENE,68,2.7,5.4,40,0.00,,,0.00,WUHU216HW,2013-01-30 20:43:00,
2013-01-30 14:48:00,54.4,29.2,29.93,South,180,1.8,4.9,38,0.00,,,0.00,WUHU216HW,2013-01-30 20:48:00,
2013-01-30 14:53:00,54.5,30.0,29.93,ENE,68,0.7,4.9,39,0.00,,,0.00,WUHU216HW,2013-01-30 20:53:00,
2013-01-30 14:58:00,54.5,29.4,29.93,NNE,23,4.7,7.4,38,0.00,,,0.00,WUHU216HW,2013-01-30 20:58:00,
2013-01-30 15:03:00,54.5,30.0,29.93,NW,315,4.0,7.4,39,0.00,,,0.00,WUHU216HW,2013-01-30 21:03:00,
2013-01-30 15:08:00,54.4,29.2,29.93,West,270,5.1,9.2,38,0.00,,,0.00,WUHU216HW,2013-01-30 21:08:00,
2013-01-30 15:13:00,54.5,29.4,29.93,NNE,23,5.4,9.2,38,0.00,,,0.00,WUHU216HW,2013-01-30 21:13:00,
2013-01-30 15:18:00,54.5,29.4,29.94,NNE,23,2.5,7.6,38,0.00,,,0.00,WUHU216HW,2013-01-30 21:18:00,
2013-01-30 15:23:00,54.4,29.2,29.94,SSE,158,4.0,5.4,38,0.00,,,0.00,WUHU216HW,2013-01-30 21:23:00,
2013-01-30 15:28:00,54.4,28.4,29.94,NW,315,1.8,6.7,37,0.00,,,0.00,WUHU216HW,2013-01-30 21:28:00,
2013-01-30 15:33:00,54.2,28.3,29.94,WSW,248,4.7,6.7,37,0.00,,,0.00,WUHU216HW,2013-01-30 21:33:00,
2013-01-30 15:38:00,54.0,28.8,29.94,ESE,113,1.1,6.3,38,0.00,,,0.00,WUHU216HW,2013-01-30 21:38:00,
2013-01-30 15:43:00,54.0,29.5,29.94,North,0,1.8,5.4,39,0.00,,,0.00,WUHU216HW,2013-01-30 21:43:00,
2013-01-30 15:48:00,54.2,29.0,29.94,ENE,68,1.8,5.4,38,0.00,,,0.00,WUHU216HW,2013-01-30 21:48:00,
2013-01-30 15:53:00,54.2,28.3,29.95,NNE,23,3.4,6.9,37,0.00,,,0.00,WUHU216HW,2013-01-30 21:53:00,
2013-01-30 15:58:00,54.0,28.8,29.95,NE,45,1.3,7.8,38,0.00,,,0.00,WUHU216HW,2013-01-30 21:58:00,
2013-01-30 16:03:00,54.0,28.8,29.95,NNW,338,3.6,7.8,38,0.00,,,0.00,WUHU216HW,2013-01-30 22:03:00,
2013-01-30 16:08:00,53.8,28.7,29.95,NNW,338,3.4,6.3,38,0.00,,,0.00,WUHU216HW,2013-01-30 22:08:00,
2013-01-30 16:13:00,53.8,28.7,29.95,North,0,1.6,6.3,38,0.00,,,0.00,WUHU216HW,2013-01-30 22:13:00,
2013-01-30 16:18:00,53.8,28.7,29.96,NNW,338,2.2,6.9,38,0.00,,,0.00,WUHU216HW,2013-01-30 22:18:00,
2013-01-30 16:23:00,53.8,29.3,29.96,NE,45,1.3,6.9,39,0.00,,,0.00,WUHU216HW,2013-01-30 22:23:00,
2013-01-30 16:28:00,53.6,29.2,29.96,East,90,1.8,3.4,39,0.00,,,0.00,WUHU216HW,2013-01-30 22:28:00,
2013-01-30 16:33:00,53.6,28.5,29.96,North,0,1.1,4.0,38,0.00,,,0.00,WUHU216HW,2013-01-30 22:33:00,
2013-01-30 16:38:00,53.6,28.5,29.96,West,270,3.4,6.5,38,0.00,,,0.00,WUHU216HW,2013-01-30 22:38:00,
2013-01-30 16:43:00,53.5,28.4,29.96,NNW,338,2.7,7.2,38,0.00,,,0.00,WUHU216HW,2013-01-30 22:43:00,
2013-01-30 16:48:00,53.5,28.4,29.96,ENE,68,1.1,7.2,38,0.00,,,0.00,WUHU216HW,2013-01-30 22:48:00,
2013-01-30 16:53:00,53.3,28.9,29.97,North,0,3.6,5.4,39,0.00,,,0.00,WUHU216HW,2013-01-30 22:53:00,
2013-01-30 16:58:00,53.3,28.9,29.97,NNE,23,1.1,3.6,39,0.00,,,0.00,WUHU216HW,2013-01-30 22:58:00,
2013-01-30 17:03:00,53.1,28.0,29.97,NE,45,2.0,4.0,38,0.00,,,0.00,WUHU216HW,2013-01-30 23:03:00,
2013-01-30 17:08:00,52.9,27.9,29.97,ENE,68,0.4,4.0,38,0.00,,,0.00,WUHU216HW,2013-01-30 23:08:00,
2013-01-30 17:13:00,52.9,27.2,29.97,North,0,1.3,4.9,37,0.00,,,0.00,WUHU216HW,2013-01-30 23:13:00,
2013-01-30 17:18:00,52.7,27.7,29.98,North,0,0.4,4.9,38,0.00,,,0.00,WUHU216HW,2013-01-30 23:18:00,
2013-01-30 17:23:00,52.7,28.4,29.98,ENE,68,3.1,3.1,39,0.00,,,0.00,WUHU216HW,2013-01-30 23:23:00,
2013-01-30 17:28:00,52.7,28.4,29.98,North,0,1.8,3.1,39,0.00,,,0.00,WUHU216HW,2013-01-30 23:28:00,
2013-01-30 17:33:00,52.6,28.3,29.98,SE,135,1.6,3.8,39,0.00,,,0.00,WUHU216HW,2013-01-30 23:33:00,
2013-01-30 17:38:00,52.6,27.5,29.98,NNW,338,2.0,3.8,38,0.00,,,0.00,WUHU216HW,2013-01-30 23:38:00,
2013-01-30 17:43:00,52.4,28.1,29.98,East,90,1.1,2.7,39,0.00,,,0.00,WUHU216HW,2013-01-30 23:43:00,
2013-01-30 17:48:00,52.2,27.9,29.99,West,270,2.0,2.9,39,0.00,,,0.00,WUHU216HW,2013-01-30 23:48:00,
2013-01-30 17:53:00,51.8,26.9,29.99,East,90,0.4,3.4,38,0.00,,,0.00,WUHU216HW,2013-01-30 23:53:00,
2013-01-30 17:58:00,51.7,26.7,29.99,NNE,23,1.3,3.4,38,0.00,,,0.00,WUHU216HW,2013-01-30 23:58:00,
2013-01-30 18:03:00,51.7,27.5,29.99,North,0,1.1,3.1,39,0.00,,,0.00,WUHU216HW,2013-01-31 00:03:00,
2013-01-30 18:08:00,51.5,27.3,29.99,NNW,338,0.2,2.5,39,0.00,,,0.00,WUHU216HW,2013-01-31 00:08:00,
2013-01-30 18:13:00,51.5,27.3,30.00,ENE,68,1.1,2.2,39,0.00,,,0.00,WUHU216HW,2013-01-31 00:13:00,
2013-01-30 18:18:00,51.5,27.3,30.00,ENE,68,0.4,1.6,39,0.00,,,0.00,WUHU216HW,2013-01-31 00:18:00,
2013-01-30 18:23:00,51.3,27.1,30.00,ESE,113,0.4,1.8,39,0.00,,,0.00,WUHU216HW,2013-01-31 00:23:00,
2013-01-30 18:28:00,51.1,26.9,30.00,North,0,0.0,1.8,39,0.00,,,0.00,WUHU216HW,2013-01-31 00:28:00,
2013-01-30 18:33:00,50.9,27.5,30.01,NNE,23,0.2,0.9,40,0.00,,,0.00,WUHU216HW,2013-01-31 00:33:00,
2013-01-30 18:38:00,50.8,27.3,30.00,NNE,23,0.0,0.9,40,0.00,,,0.00,WUHU216HW,2013-01-31 00:38:00,
2013-01-30 18:43:00,50.8,27.3,30.00,SSW,203,0.0,0.4,40,0.00,,,0.00,WUHU216HW,2013-01-31 00:43:00,
2013-01-30 18:48:00,50.6,27.1,30.00,SSW,203,0.0,0.4,40,0.00,,,0.00,WUHU216HW,2013-01-31 00:48:00,
2013-01-30 18:53:00,50.4,27.6,30.01,SSW,203,0.0,0.4,41,0.00,,,0.00,WUHU216HW,2013-01-31 00:53:00,
2013-01-30 18:58:00,50.0,27.2,30.01,South,180,0.0,0.4,41,0.00,,,0.00,WUHU216HW,2013-01-31 00:58:00,
2013-01-30 19:03:00,50.0,26.6,30.01,South,180,0.2,0.4,40,0.00,,,0.00,WUHU216HW,2013-01-31 01:03:00,
2013-01-30 19:08:00,49.7,26.3,30.01,South,180,0.2,0.4,40,0.00,,,0.00,WUHU216HW,2013-01-31 01:08:00,
2013-01-30 19:13:00,49.5,26.7,30.01,South,180,0.0,0.4,41,0.00,,,0.00,WUHU216HW,2013-01-31 01:13:00,
2013-01-30 19:18:00,49.3,26.6,30.01,South,180,0.0,0.2,41,0.00,,,0.00,WUHU216HW,2013-01-31 01:18:00,
2013-01-30 19:23:00,49.0,26.7,30.01,South,180,0.0,0.0,42,0.00,,,0.00,WUHU216HW,2013-01-31 01:23:00,
2013-01-30 19:28:00,48.8,26.7,30.01,South,180,0.0,0.0,42,0.00,,,0.00,WUHU216HW,2013-01-31 01:28:00,
2013-01-30 19:33:00,48.6,26.5,30.01,South,180,0.0,0.0,42,0.00,,,0.00,WUHU216HW,2013-01-31 01:33:00,
2013-01-30 19:38:00,48.4,26.8,30.01,South,180,0.0,0.0,43,0.00,,,0.00,WUHU216HW,2013-01-31 01:38:00,
2013-01-30 19:43:00,48.2,26.6,30.02,South,180,0.0,0.0,43,0.00,,,0.00,WUHU216HW,2013-01-31 01:43:00,
2013-01-30 19:48:00,47.9,26.3,30.02,South,180,0.0,0.0,43,0.00,,,0.00,WUHU216HW,2013-01-31 01:48:00,
2013-01-30 19:53:00,47.9,26.8,30.02,South,180,0.0,0.0,44,0.00,,,0.00,WUHU216HW,2013-01-31 01:53:00,
2013-01-30 19:58:00,47.5,26.6,30.01,South,180,0.0,0.0,44,0.00,,,0.00,WUHU216HW,2013-01-31 01:58:00,
2013-01-30 20:03:00,47.2,26.2,30.01,South,180,0.0,0.0,44,0.00,,,0.00,WUHU216HW,2013-01-31 02:03:00,
2013-01-30 20:08:00,47.0,26.6,30.01,South,180,0.0,0.0,45,0.00,,,0.00,WUHU216HW,2013-01-31 02:08:00,
2013-01-30 20:13:00,46.8,26.5,30.01,South,180,0.0,0.0,45,0.00,,,0.00,WUHU216HW,2013-01-31 02:13:00,
2013-01-30 20:18:00,46.6,26.3,30.01,South,180,0.0,0.0,45,0.00,,,0.00,WUHU216HW,2013-01-31 02:18:00,
2013-01-30 20:23:00,46.4,26.6,30.01,South,180,0.0,0.0,46,0.00,,,0.00,WUHU216HW,2013-01-31 02:23:00,
2013-01-30 20:28:00,46.3,26.5,30.01,South,180,0.0,0.0,46,0.00,,,0.00,WUHU216HW,2013-01-31 02:28:00,
2013-01-30 20:33:00,46.1,26.3,30.02,South,180,0.0,0.0,46,0.00,,,0.00,WUHU216HW,2013-01-31 02:33:00,
2013-01-30 20:38:00,45.9,26.7,30.02,South,180,0.0,0.0,47,0.00,,,0.00,WUHU216HW,2013-01-31 02:38:00,
2013-01-30 20:43:00,45.7,26.6,30.02,South,180,0.0,0.0,47,0.00,,,0.00,WUHU216HW,2013-01-31 02:43:00,
2013-01-30 20:48:00,45.5,26.4,30.02,South,180,0.0,0.0,47,0.00,,,0.00,WUHU216HW,2013-01-31 02:48:00,
2013-01-30 20:53:00,45.5,26.9,30.02,South,180,0.0,0.0,48,0.00,,,0.00,WUHU216HW,2013-01-31 02:53:00,
2013-01-30 20:58:00,45.4,26.7,30.02,South,180,0.0,0.0,48,0.00,,,0.00,WUHU216HW,2013-01-31 02:58:00,
2013-01-30 21:03:00,45.2,26.6,30.02,South,180,0.0,0.0,48,0.00,,,0.00,WUHU216HW,2013-01-31 03:03:00,
2013-01-30 21:08:00,45.0,26.5,30.02,South,180,0.0,0.0,48,0.00,,,0.00,WUHU216HW,2013-01-31 03:08:00,
2013-01-30 21:13:00,45.0,26.5,30.02,South,180,0.0,0.0,48,0.00,,,0.00,WUHU216HW,2013-01-31 03:13:00,
2013-01-30 21:18:00,44.8,26.8,30.02,South,180,0.0,0.0,49,0.00,,,0.00,WUHU216HW,2013-01-31 03:18:00,
2013-01-30 21:23:00,44.8,26.8,30.02,South,180,0.0,0.0,49,0.00,,,0.00,WUHU216HW,2013-01-31 03:23:00,
2013-01-30 21:28:00,44.6,26.6,30.02,South,180,0.0,0.0,49,0.00,,,0.00,WUHU216HW,2013-01-31 03:28:00,
2013-01-30 21:33:00,44.5,26.5,30.02,South,180,0.0,0.0,49,0.00,,,0.00,WUHU216HW,2013-01-31 03:33:00,
2013-01-30 21:38:00,44.3,26.3,30.02,South,180,0.0,0.0,49,0.00,,,0.00,WUHU216HW,2013-01-31 03:38:00,
2013-01-30 21:43:00,44.3,26.8,30.03,South,180,0.0,0.0,50,0.00,,,0.00,WUHU216HW,2013-01-31 03:43:00,
2013-01-30 21:48:00,44.1,26.7,30.02,South,180,0.0,0.0,50,0.00,,,0.00,WUHU216HW,2013-01-31 03:48:00,
2013-01-30 21:53:00,43.9,27.0,30.02,South,180,0.0,0.0,51,0.00,,,0.00,WUHU216HW,2013-01-31 03:53:00,
2013-01-30 21:58:00,43.7,26.8,30.02,South,180,0.0,0.0,51,0.00,,,0.00,WUHU216HW,2013-01-31 03:58:00,
2013-01-30 22:03:00,43.7,26.8,30.03,South,180,0.0,0.0,51,0.00,,,0.00,WUHU216HW,2013-01-31 04:03:00,
2013-01-30 22:08:00,43.6,27.1,30.03,South,180,0.0,0.0,52,0.00,,,0.00,WUHU216HW,2013-01-31 04:08:00,
2013-01-30 22:13:00,43.4,26.9,30.03,South,180,0.0,0.0,52,0.00,,,0.00,WUHU216HW,2013-01-31 04:13:00,
2013-01-30 22:18:00,43.2,26.7,30.03,South,180,0.0,0.0,52,0.00,,,0.00,WUHU216HW,2013-01-31 04:18:00,
2013-01-30 22:23:00,43.2,27.2,30.02,South,180,0.0,0.0,53,0.00,,,0.00,WUHU216HW,2013-01-31 04:23:00,
2013-01-30 22:28:00,43.0,27.0,30.03,South,180,0.0,0.0,53,0.00,,,0.00,WUHU216HW,2013-01-31 04:28:00,
2013-01-30 22:33:00,42.8,26.8,30.02,South,180,0.0,0.0,53,0.00,,,0.00,WUHU216HW,2013-01-31 04:33:00,
2013-01-30 22:38:00,42.7,26.6,30.03,South,180,0.0,0.0,53,0.00,,,0.00,WUHU216HW,2013-01-31 04:38:00,
2013-01-30 22:43:00,42.7,26.6,30.03,South,180,0.0,0.0,53,0.00,,,0.00,WUHU216HW,2013-01-31 04:43:00,
2013-01-30 22:48:00,42.7,26.6,30.03,South,180,0.0,0.0,53,0.00,,,0.00,WUHU216HW,2013-01-31 04:48:00,
2013-01-30 22:53:00,42.7,26.6,30.02,South,180,0.0,0.0,53,0.00,,,0.00,WUHU216HW,2013-01-31 04:53:00,
2013-01-30 22:58:00,42.5,26.6,30.03,South,180,0.0,0.0,53,0.00,,,0.00,WUHU216HW,2013-01-31 04:58:00,
2013-01-30 23:00:00,42.5,26.6,30.03,South,180,0.0,0.0,53,0.00,,,0.00,WUHU216HW,2013-01-31 05:00:00,
2013-01-30 23:01:00,42.5,26.9,30.03,South,180,0.0,0.0,54,0.00,,,0.00,WUHU216HW,2013-01-31 05:01:00,
2013-01-30 23:06:00,42.3,26.7,30.02,South,180,0.0,0.0,54,0.00,,,0.00,WUHU216HW,2013-01-31 05:06:00,
2013-01-30 23:11:00,42.1,27.0,30.02,South,180,0.0,0.0,55,0.00,,,0.00,WUHU216HW,2013-01-31 05:11:00,
2013-01-30 23:16:00,41.9,26.9,30.02,South,180,0.0,0.0,55,0.00,,,0.00,WUHU216HW,2013-01-31 05:16:00,
2013-01-30 23:21:00,41.9,26.9,30.02,South,180,0.0,0.0,55,0.00,,,0.00,WUHU216HW,2013-01-31 05:21:00,
2013-01-30 23:26:00,41.9,27.3,30.02,South,180,0.0,0.0,56,0.00,,,0.00,WUHU216HW,2013-01-31 05:26:00,
2013-01-30 23:31:00,41.9,27.3,30.02,South,180,0.0,0.2,56,0.00,,,0.00,WUHU216HW,2013-01-31 05:31:00,
2013-01-30 23:36:00,41.9,27.3,30.02,ESE,113,0.0,0.4,56,0.00,,,0.00,WUHU216HW,2013-01-31 05:36:00,
2013-01-30 23:41:00,41.9,27.3,30.02,ESE,113,0.0,0.4,56,0.00,,,0.00,WUHU216HW,2013-01-31 05:41:00,
2013-01-30 23:46:00,41.8,27.2,30.02,ESE,113,0.0,0.4,56,0.00,,,0.00,WUHU216HW,2013-01-31 05:46:00,
2013-01-30 23:51:00,41.8,27.5,30.02,ESE,113,0.0,0.0,57,0.00,,,0.00,WUHU216HW,2013-01-31 05:51:00,
2013-01-30 23:56:00,41.4,27.3,30.01,ESE,113,0.0,0.2,57,0.00,,,0.00,WUHU216HW,2013-01-31 05:56:00,